Back to catalog

STARONE D2

AliveCommunicationsGEO
NORAD 49055·PAYLOAD·🇧🇷 Brazil

Launched Jul 30, 2021 from Guiana Space Centre

Loading…

TLE

FreshSource: Space-Track

Epoch: Sep 14, 2026, 13:28 UTC

1 49055U 21069A   26257.56123428 -.00000273  00000-0  00000-0 0  9997
2 49055   0.0147 147.4033 0002730  25.2239 312.9778  1.00269669 18852

Track STARONE D2 in real time with AllMySat

Download on the App Store